"Pseudo-MPEC" for P21vVLd

Created 2022 Aug 15 10:22:11 UT using Find_Orb

Click here for an explanation of pseudo-MPECs

 
 Astrometry: 
     P21vVLd* C2022 08 07fI1#I*!u3B1W$%OM/PP+uT\#VouhKHUNYXxc4MQ0)bgaA5QF?6BMF52
     P21vVLd  C2022 08 07ry]gtLmv[uUmMr[IF]f3E-*4^P-urZGK=iyC6uX1PAstrometry_F52
     P21vVLd  C2022 08 07#;9LaQ8OPY8/%g\_5aVXaTn\fYglrjbfpI=/xGc1e!uji1)Xr96YF52
     P21vVLd  C2022 08 07G^p4q]Zj'B0wF'`xNI0mK_7:p@rh3b[Froq/)a6LK3LRtJw4MHsdF52
     P21vVLd  C2022 08 07i^4XrP4SP,Ho+/+W5r)gF.HDBulp`/_Dwq(+IXkK`WjEh%LlZnbVF52
     P21vVLd aC2022 08 08.52160522 57 10.179-16 11 07.09   ~8C7q 20.2 GWNEOCP568
     P21vVLd aC2022 08 08.52339422 57 09.820-16 11 06.03   ~8C7q 21.2 GWNEOCP568
     P21vVLd aC2022 08 08.52521122 57 09.474-16 11 04.97   ~8C7q 21.0 GWNEOCP568
     P21vVLd |C2022 08 09j/L*rfNI7EQCH0htj)QZNsredacted;9FE`eYT'jD6pN.\W2tVcq807
     P21vVLd |C2022 08 09$M9xrB),q#F=,\6:d_vgc3xuaT82Y@K18n;Derj\NPsdE]D*7uKT807
     P21vVLd |C2022 08 09.J)IXv[7`#TTrRclicksDw0rM)7r@5VW0\fr`oAEV0aqgoK_Hy)E807
     P21vVLd |C2022 08 15/UhereL8FyX\/ilk/?+Y:$$qhfhU[m:]lw(!RUmST%5cI'/XF:7;807
     P21vVLd |C2022 08 15rp2`\T;q!U/forn,7I9Fqlv'yexplanationb'XcuI$n?jTUxp'y807
     P21vVLd |C2022 08 15%6G2'qKNB=NxFr`MPIIS'=MqK\oA=oGS35g^c/Uk(S8m?*qB7x9d807

Station data:
(568) Mauna Kea  (N19.826114 W155.472200)  US/Hawaii. 3.6-m
   Canada-France-Hawaii Telescope + CCD2.24-m University of Hawaii reflector.
(807) Cerro Tololo Observatory, La Serena  (S30.169133 W70.805900)  Chile.
   Observer R. Holmes. 0.61-m f/6.5 astrograph + CCD.
(F52) Pan-STARRS 2, Haleakala  (N20.707382 W156.255910)  US/Hawaii.
   Observers J. Bulger, T. Dukes, T. Lowe, A. Schultz, M. Willman. Measurers
   K. Chambers, S. Chastel, T. de Boer, L. Denneau, J. Fairlamb, H.
   Flewelling, M. Huber, C.-C. Lin, E. Magnier, Y. Ramanjooloo, R. Wainscoat,
   R. Weryk. 1.8-m Ritchey-Chrétien + CCD.

Orbital elements:  P21vVLd
   Perihelion 2023 Feb 23.49688 +/- 0.184 TT = 11:55:30 (JD 2459998.99688)
Epoch 2022 Aug 15.0 TT = JDT 2459806.5   Earth MOID: 0.1890   Ve: 0.0767
M 188.08969569 +/- 0.25             Ma: 0.0442                AutoNEOCP
n   0.89305500 +/- 0.00057          Peri.  169.26929 +/- 0.11
a   1.06794915 +/- 0.000455         Node   330.66015 +/- 0.009
e   0.2554935 +/- 0.00215           Incl.   14.26958 +/- 0.15
P   1.10/403.10d           H 21.8   G  0.15   U  7.7
q 0.79509508 +/- 0.00197    Q 1.34080322 +/- 0.00286      (J2000 ecliptic)
From 14 observations 2022 Aug. 7-15; mean residual 0".17
Residuals in arcseconds: 
220807 F52  .01+  .10-    220808 568  .13+  .04-    220809 807  .27-  .05+    
220807 F52  .12-  .03-    220808 568  .07-  .03-    220815 807  .34-  .38-    
220807 F52  .20+  .29+    220808 568  .00   .03-    220815 807  .08+  .46+    
220807 F52  .02-  .04-    220809 807  .08+  .05-    220815 807  .26+  .07-    
220807 F52  .09-  .01+    220809 807  .15+  .01-    

Ephemerides (geocentric):
Date (UTC) HH   RA             Dec           delta  r     elong  mag " sig PA
---- --------  ------------   ------------  ------ ------ -----  --- --------
2022 08 15 10  22 34 02.578   -14 56 13.84  .33301 1.3389 166.5 20.7 .154  34
2022 08 15 11  22 33 53.511   -14 55 43.66  .33293 1.3389 166.6 20.7 .158  32
2022 08 15 12  22 33 44.438   -14 55 13.45  .33284 1.3389 166.7 20.7 .162  30
2022 08 15 13  22 33 35.358   -14 54 43.20  .33276 1.3389 166.8 20.7 .166  29
2022 08 15 14  22 33 26.271   -14 54 12.91  .33267 1.3388 166.8 20.7 .170  27
2022 08 15 15  22 33 17.177   -14 53 42.58  .33259 1.3388 166.9 20.7 .175  26
2022 08 15 16  22 33 08.077   -14 53 12.21  .33250 1.3388 167.0 20.7 .179  24
2022 08 15 17  22 32 58.969   -14 52 41.80  .33242 1.3388 167.0 20.7 .184  23
2022 08 15 18  22 32 49.856   -14 52 11.36  .33234 1.3388 167.1 20.7 .189  21
2022 08 15 19  22 32 40.735   -14 51 40.87  .33226 1.3388 167.2 20.7 .194  20
2022 08 15 20  22 32 31.609   -14 51 10.35  .33217 1.3387 167.3 20.7 .199  18
2022 08 15 21  22 32 22.475   -14 50 39.79  .33209 1.3387 167.3 20.7 .204  17
2022 08 15 22  22 32 13.335   -14 50 09.19  .33201 1.3387 167.4 20.7 .210  16
2022 08 15 23  22 32 04.189   -14 49 38.55  .33193 1.3387 167.5 20.7 .215  14
2022 08 16 00  22 31 55.036   -14 49 07.87  .33185 1.3387 167.6 20.7 .221  13
2022 08 16 01  22 31 45.877   -14 48 37.15  .33177 1.3387 167.6 20.7 .227  12
2022 08 16 02  22 31 36.711   -14 48 06.40  .33169 1.3386 167.7 20.7 .233  11
2022 08 16 03  22 31 27.539   -14 47 35.60  .33161 1.3386 167.8 20.7 .239   9
2022 08 16 04  22 31 18.360   -14 47 04.77  .33153 1.3386 167.9 20.7 .245   8
2022 08 16 05  22 31 09.176   -14 46 33.90  .33145 1.3386 167.9 20.7 .251   7
2022 08 16 06  22 30 59.985   -14 46 02.99  .33137 1.3386 168.0 20.7 .258   6
2022 08 16 07  22 30 50.787   -14 45 32.04  .33129 1.3386 168.1 20.7 .265   5
2022 08 16 08  22 30 41.584   -14 45 01.05  .33121 1.3385 168.1 20.7 .271   4
2022 08 16 09  22 30 32.374   -14 44 30.02  .33114 1.3385 168.2 20.7 .278   3
2022 08 16 10  22 30 23.158   -14 43 58.96  .33106 1.3385 168.3 20.7 .286   2
2022 08 16 11  22 30 13.937   -14 43 27.85  .33098 1.3385 168.4 20.7 .293   1
2022 08 16 12  22 30 04.708   -14 42 56.71  .33090 1.3385 168.4 20.7 .300   0
2022 08 16 13  22 29 55.474   -14 42 25.53  .33083 1.3384 168.5 20.7 .308 179
2022 08 16 14  22 29 46.234   -14 41 54.31  .33075 1.3384 168.6 20.7 .315 178
2022 08 16 15  22 29 36.988   -14 41 23.05  .33068 1.3384 168.7 20.7 .323 177
2022 08 16 16  22 29 27.736   -14 40 51.75  .33060 1.3384 168.7 20.7 .331 176
2022 08 16 17  22 29 18.478   -14 40 20.41  .33053 1.3384 168.8 20.7 .340 175
2022 08 16 18  22 29 09.214   -14 39 49.04  .33045 1.3383 168.9 20.7 .348 174
2022 08 16 19  22 28 59.944   -14 39 17.62  .33038 1.3383 169.0 20.6 .356 174
2022 08 16 20  22 28 50.669   -14 38 46.17  .33030 1.3383 169.0 20.6 .365 173
2022 08 16 21  22 28 41.387   -14 38 14.68  .33023 1.3383 169.1 20.6 .374 172
2022 08 16 22  22 28 32.100   -14 37 43.15  .33016 1.3383 169.2 20.6 .383 171
2022 08 16 23  22 28 22.807   -14 37 11.58  .33008 1.3383 169.3 20.6 .392 170
2022 08 17 00  22 28 13.508   -14 36 39.97  .33001 1.3382 169.3 20.6 .401 170
2022 08 17 01  22 28 04.204   -14 36 08.33  .32994 1.3382 169.4 20.6 .411 169
2022 08 17 02  22 27 54.894   -14 35 36.64  .32987 1.3382 169.5 20.6 .421 168
2022 08 17 03  22 27 45.579   -14 35 04.92  .32980 1.3382 169.6 20.6 .430 167
2022 08 17 04  22 27 36.257   -14 34 33.15  .32973 1.3382 169.6 20.6 .441 167
2022 08 17 05  22 27 26.931   -14 34 01.35  .32966 1.3381 169.7 20.6 .451 166
2022 08 17 06  22 27 17.598   -14 33 29.51  .32959 1.3381 169.8 20.6 .461 165
2022 08 17 07  22 27 08.261   -14 32 57.64  .32952 1.3381 169.8 20.6 .472 165
2022 08 17 08  22 26 58.917   -14 32 25.72  .32945 1.3381 169.9 20.6 .482 164
2022 08 17 09  22 26 49.569   -14 31 53.76  .32938 1.3381 170.0 20.6 .493 163